Weather reports worldwide

Advertisment
Regensburg, Germany (10776): temperature & dewpoint: 07.07.2020 06:00:00 - 13.07.2020 06:00:00 (CEST)Regensburg, Germany (10776): temperature 5cm & temperature -5cm: 07.07.2020 06:00:00 - 13.07.2020 06:00:00 (CEST)Regensburg, Germany (10776): temperature -20cm & temperature -100cm: 07.07.2020 06:00:00 - 13.07.2020 06:00:00 (CEST)Regensburg, Germany (10776): wind speed & gusts: 07.07.2020 06:00:00 - 13.07.2020 06:00:00 (CEST)Regensburg, Germany (10776): wind direction: 07.07.2020 06:00:00 - 13.07.2020 06:00:00 (CEST)Regensburg, Germany (10776): reduced air pressure: 07.07.2020 06:00:00 - 13.07.2020 06:00:00 (CEST)Regensburg, Germany (10776): visibility: 07.07.2020 06:00:00 - 13.07.2020 06:00:00 (CEST)Regensburg, Germany (10776): sunshine duration: 07.07.2020 06:00:00 - 13.07.2020 06:00:00 (CEST)Regensburg, Germany (10776): precipitation: 07.07.2020 06:00:00 - 13.07.2020 06:00:00 (CEST)
Date & Time tt [°C] td [°C] tt 5cm [°C] tt -5cm [°C] tt -20cm [°C] tt -100cm [°C] ff [km/h] ff [kn] fx [km/h] fx [kn] dd ppp [hPa] vv [km] sd [min] rr [mm]
13.07.2020 06:00:00 8,1 6,7 6,4 15,0 20,7 18,9 6 3 13 7 N 1025,6 57 0 0,0
13.07.2020 05:00:00 8,3 6,9 6,5 15,6 21,1 18,9 8 4 10 5 NNE 1025,6 64 0 0,0
13.07.2020 04:00:00 8,8 7,2 6,8 16,2 21,5 18,9 6 4 9 5 N 1025,7 73 0 0,0
13.07.2020 03:00:00 10,2 7,0 7,3 16,8 21,9 18,9 8 4 11 6 N 1025,8 75 0 0,0
13.07.2020 02:00:00 10,5 7,5 8,0 17,5 22,3 18,9 7 4 12 7 NNE 1025,7 65 0 0,0
13.07.2020 01:00:00 12,3 7,3 8,9 18,3 22,6 18,9 8 5 12 6 NNE 1025,5 64 0 0,0
13.07.2020 00:00:00 12,8 7,7 9,2 19,3 23,0 18,9 8 4 10 6 N 1025,5 61 0 0,0
12.07.2020 23:00:00 14,7 8,0 10,2 20,3 23,3 18,9 5 3 10 5 NE 1025,5 56 0 0,0
12.07.2020 22:00:00 16,1 8,2 11,6 21,6 23,5 18,9 7 4 10 5 NNE 1025,1 53 0 0,0
12.07.2020 21:00:00 18,5 7,4 14,0 23,0 23,6 18,9 3 2 8 4 ENE 1024,4 46 55 0,0
12.07.2020 20:00:00 20,5 5,0 17,3 24,5 23,6 18,9 5 3 12 7 NNE 1024,2 59 59 0,0
12.07.2020 19:00:00 21,5 5,8 23,8 25,8 23,4 18,9 4 2 12 6 ENE 1024,1 53 24 0,0
12.07.2020 18:00:00 20,9 6,3 22,4 26,9 23,2 18,9 6 3 14 8 E 1024,4 61 12 0,0
12.07.2020 17:00:00 20,9 5,3 22,8 27,5 22,8 18,9 5 3 17 9 SE 1024,6 66 37 0,0
12.07.2020 16:00:00 20,4 5,5 22,6 27,1 22,4 18,9 5 3 21 11 E 1024,7 75 8 0,0
12.07.2020 15:00:00 21,1 6,0 24,7 29,1 21,8 18,9 5 3 15 8 E 1024,8 64 38 0,0
12.07.2020 14:00:00 21,7 6,1 29,5 27,2 21,4 18,9 8 5 21 11 SSE 1024,9 55 48 0,0
12.07.2020 13:00:00 18,7 7,1 19,8 25,2 21,0 18,9 6 4 14 8 NNE 1025,7 46 13 0,0
12.07.2020 12:00:00 19,0 8,1 21,8 25,0 20,6 18,9 6 3 15 8 ENE 1025,6 48 25 0,0
12.07.2020 11:00:00 19,1 9,2 24,7 23,4 20,3 18,9 4 2 10 5 NE 1025,6 52 40 0,0
12.07.2020 10:00:00 18,6 12,3 23,4 20,7 20,3 18,9 4 2 13 7 NW 1025,7 67 49 0,0
12.07.2020 09:00:00 16,8 12,2 20,3 18,1 20,4 18,9 4 2 11 6 NNW 1026,0 58 48 0,0
12.07.2020 08:00:00 14,3 11,6 13,7 17,5 20,6 18,9 4 2 8 4 NNE 1026,2 29 26 0,0
12.07.2020 07:00:00 12,6 11,0 13,2 16,9 20,8 18,9 5 3 8 5 NNE 1026,3 17 0 0,0
12.07.2020 06:00:00 11,7 10,1 11,9 16,7 21,0 18,9 5 3 13 7 N 1025,9 34 0 0,0
12.07.2020 05:00:00 11,2 9,5 11,2 16,8 21,4 18,8 8 5 12 7 NNE 1025,4 31 0 0,0
12.07.2020 04:00:00 11,1 9,6 10,7 16,9 21,7 18,8 4 2 8 5 NNE 1025,4 38 0 0,0
12.07.2020 03:00:00 10,8 9,5 10,0 17,0 22,1 18,8 5 3 9 5 N 1025,6 42 0 0,0
12.07.2020 02:00:00 10,6 9,3 9,2 17,4 22,5 18,8 6 3 8 4 N 1025,7 37 0 0,0
12.07.2020 01:00:00 11,6 9,5 9,2 18,2 22,8 18,8 3 2 7 4 NNW 1025,4 49 0 0,0
12.07.2020 00:00:00 13,0 9,6 10,6 19,1 23,2 18,8 4 2 9 5 E 1025,2 44 0 0,0
11.07.2020 23:00:00 14,0 9,9 10,8 19,9 23,5 18,8 5 3 8 4 N 1024,6 72 0 0,0
11.07.2020 22:00:00 14,8 9,8 11,7 21,2 23,7 18,8 3 1 16 9 NNW 1024,1 68 0 0,0
11.07.2020 21:00:00 17,2 10,0 15,8 22,6 23,8 18,8 8 4 16 8 NE 1023,1 75 51 0,0
11.07.2020 20:00:00 19,4 8,2 16,9 24,1 23,7 18,8 9 5 24 13 NNW 1022,1 75 60 0,0
11.07.2020 19:00:00 20,3 8,3 22,2 25,6 23,5 18,8 11 6 22 12 NNE 1021,7 62 52 0,0
11.07.2020 18:00:00 22,4 10,1 25,6 26,2 23,2 18,8 8 4 23 12 NNW 1021,6 67 58 0,0
11.07.2020 17:00:00 21,2 10,2 24,7 26,0 22,9 18,8 10 6 27 15 N 1021,4 75 24 0,0
11.07.2020 16:00:00 20,5 10,2 22,1 26,8 22,6 18,8 8 5 21 11 N 1021,3 75 31 0,0
11.07.2020 15:00:00 21,6 11,1 26,0 25,9 22,3 18,8 9 5 25 14 N 1021,1 74 20 0,0
11.07.2020 14:00:00 21,1 11,3 25,4 25,4 22,0 18,8 11 6 25 14 NNE 1021,0 75 39 0,0
11.07.2020 13:00:00 18,6 12,8 20,5 23,9 22,0 18,8 11 6 24 13 N 1021,2 70 29 0,0
11.07.2020 12:00:00 16,4 12,9 17,2 20,9 22,1 18,7 11 6 19 11 N 1021,6 75 0 0,0
11.07.2020 11:00:00 15,4 13,5 15,5 20,0 22,3 18,7 8 5 16 9 N 1021,0 53 0 0,0
11.07.2020 10:00:00 14,5 13,5 14,6 19,4 22,5 18,7 5 3 23 13 N 1020,6 31 0 0,2
11.07.2020 09:00:00 13,9 13,0 14,1 19,4 22,8 18,7 9 5 20 11 NNW 1020,2 27 0 0,2
11.07.2020 08:00:00 13,8 12,8 13,9 19,7 23,1 18,7 7 4 16 9 N 1019,7 16 0 0,9
11.07.2020 07:00:00 14,0 13,2 13,9 20,0 23,4 18,7 6 3 11 6 NNW 1018,8 14 0 0,6
11.07.2020 06:00:00 14,2 13,0 14,0 20,5 23,7 18,7 3 1 15 8 NNW 1018,6 26 0 1,2
11.07.2020 05:00:00 15,2 12,2 14,1 21,1 24,0 18,7 7 4 18 10 N 1017,9 27 0 0,1
11.07.2020 04:00:00 16,4 12,3 15,6 21,5 24,3 18,7 8 4 19 10 N 1017,3 55 0 0,0
11.07.2020 03:00:00 16,3 11,7 14,8 21,8 24,7 18,7 4 2 14 8 N 1017,1 70 0 0,0
11.07.2020 02:00:00 16,5 11,6 14,5 22,5 25,1 18,7 6 4 11 6 N 1017,4 75 0 0,0
11.07.2020 01:00:00 17,8 11,4 15,5 23,4 25,4 18,7 4 2 10 5 NNW 1016,9 75 0 0,0
11.07.2020 00:00:00 18,7 11,6 16,1 24,4 25,7 18,7 3 1 7 4 N 1015,9 71 0 0,0
10.07.2020 23:00:00 20,3 10,8 18,2 25,5 25,9 18,7 0 0 8 5 N 1015,5 69 0 0,0
10.07.2020 22:00:00 21,0 10,3 19,9 26,5 26,1 18,7 4 2 29 16 WNW 1014,9 75 0 0,0
10.07.2020 21:00:00 22,3 10,2 21,6 27,9 26,1 18,7 13 7 30 16 NNW 1013,9 75 51 0,0
10.07.2020 20:00:00 24,4 12,5 24,6 29,2 26,1 18,7 16 9 37 20 NNW 1012,4 55 53 0,0
10.07.2020 19:00:00 24,8 13,0 25,4 30,2 25,9 18,7 15 8 45 25 NW 1011,8 74 45 0,0
10.07.2020 18:00:00 28,5 13,4 32,0 31,0 25,7 18,7 16 9 45 24 NW 1009,7 72 48 0,0
10.07.2020 17:00:00 27,1 16,2 29,0 31,4 25,3 18,7 14 8 34 19 W 1009,2 75 8 0,1
10.07.2020 16:00:00 29,2 14,7 31,5 33,6 24,6 18,7 11 6 32 17 W 1008,7 75 21 0,0
10.07.2020 15:00:00 32,3 15,3 39,4 33,9 23,9 18,7 22 12 42 23 SW 1008,5 69 43 0,0
10.07.2020 14:00:00 31,0 14,6 37,1 33,8 23,1 18,7 14 7 43 23 WSW 1009,1 55 51 0,0
10.07.2020 13:00:00 31,2 14,7 38,4 31,8 22,5 18,7 12 7 36 19 WSW 1009,2 75 60 0,0
10.07.2020 12:00:00 29,2 13,9 35,9 28,9 22,0 18,7 13 7 26 14 SSW 1010,0 68 59 0,0
10.07.2020 11:00:00 25,5 15,4 29,4 26,0 21,8 18,7 11 6 22 12 SSE 1010,8 54 44 0,0
10.07.2020 10:00:00 23,7 14,3 27,6 23,2 21,8 18,7 11 6 22 12 SSE 1011,5 59 60 0,0
10.07.2020 09:00:00 21,4 14,6 24,6 20,4 22,0 18,7 13 7 24 13 SSE 1011,9 59 60 0,0
10.07.2020 08:00:00 18,6 14,7 17,6 19,2 22,2 18,6 13 7 25 14 SE 1012,4 72 60 0,0
10.07.2020 07:00:00 17,1 14,2 16,2 19,3 22,5 18,6 13 7 26 14 SE 1012,9 51 52 0,0
10.07.2020 06:00:00 16,9 14,1 15,5 19,4 22,8 18,6 10 5 23 12 SSE 1013,1 63 0 0,0
10.07.2020 05:00:00 16,7 14,1 14,8 19,8 23,1 18,6 8 5 16 9 SE 1013,0 57 0 0,0
10.07.2020 04:00:00 17,2 14,3 14,7 20,3 23,5 18,6 6 3 14 8 SSE 1013,2 55 0 0,0
10.07.2020 03:00:00 18,0 14,3 15,3 20,9 23,8 18,6 7 4 16 9 SSE 1013,5 66 0 0,0
10.07.2020 02:00:00 17,6 14,4 14,5 21,7 24,2 18,6 4 2 11 6 SSE 1013,7 64 0 0,0
10.07.2020 01:00:00 18,2 13,8 14,8 22,4 24,5 18,6 2 1 11 6 SSW 1014,0 69 0 0,0
10.07.2020 00:00:00 18,9 14,3 15,5 23,3 24,8 18,6 4 2 6 3 S 1013,8 68 0 0,0
09.07.2020 23:00:00 20,2 14,0 16,4 24,4 25,0 18,6 4 2 10 5 SSE 1013,4 59 0 0,0
09.07.2020 22:00:00 21,6 13,5 17,8 25,7 25,2 18,7 4 2 9 5 SSE 1013,0 68 0 0,0
09.07.2020 21:00:00 24,0 13,2 20,5 27,3 25,1 18,7 5 3 17 9 SSW 1012,4 64 56 0,0
09.07.2020 20:00:00 27,4 13,3 25,2 28,8 24,9 18,7 10 5 23 13 SW 1012,0 64 50 0,0
09.07.2020 19:00:00 27,9 12,5 29,6 30,1 24,6 18,7 12 7 30 16 WSW 1012,1 75 48 0,0
09.07.2020 18:00:00 29,4 13,6 34,0 30,9 24,1 18,7 14 7 28 15 SW 1012,2 75 48 0,0
09.07.2020 17:00:00 29,1 13,3 34,5 31,2 23,6 18,7 17 9 32 17 SW 1012,9 44 53 0,0
09.07.2020 16:00:00 28,5 13,6 34,3 31,4 23,0 18,7 11 6 33 18 SSW 1013,5 75 32 0,0
09.07.2020 15:00:00 26,8 13,1 31,4 30,8 22,3 18,7 13 7 35 19 SW 1014,2 74 38 0,0
09.07.2020 14:00:00 27,7 13,1 35,9 29,8 21,8 18,7 16 8 31 17 WSW 1014,7 70 37 0,0
09.07.2020 13:00:00 24,5 14,1 27,7 27,9 21,3 18,7 13 7 27 15 WSW 1015,7 60 26 0,0
09.07.2020 12:00:00 24,0 14,1 30,0 26,0 21,0 18,7 9 5 20 11 SE 1016,0 56 55 0,0
09.07.2020 11:00:00 20,7 13,8 24,3 22,5 20,9 18,7 9 5 15 8 SE 1017,2 59 0 0,0
09.07.2020 10:00:00 18,6 13,6 20,7 20,9 20,9 18,7 8 4 19 10 SE 1017,8 65 0 0,0
09.07.2020 09:00:00 17,5 13,1 18,9 20,1 21,0 18,7 9 5 20 11 SSE 1017,7 55 12 0,0
09.07.2020 08:00:00 16,5 12,7 17,4 19,3 21,2 18,7 11 6 20 11 SSE 1017,9 47 0 0,0
09.07.2020 07:00:00 15,5 12,7 15,4 18,9 21,3 18,7 4 2 12 6 SSE 1017,9 52 0 0,0
09.07.2020 06:00:00 15,5 12,7 15,3 19,0 21,5 18,7 5 3 10 5 SE 1018,0 46 0 0,0
09.07.2020 05:00:00 15,4 12,1 15,0 19,3 21,7 18,7 4 2 10 5 SSE 1018,1 61 0 0,0
09.07.2020 04:00:00 15,6 12,1 15,4 19,6 22,0 18,7 5 3 11 6 SSE 1018,2 61 0 0,0
09.07.2020 03:00:00 15,4 12,3 15,3 19,9 22,2 18,7 2 1 6 3 WSW 1018,3 64 0 0,0
09.07.2020 02:00:00 15,5 12,5 15,4 20,2 22,4 18,7 4 2 7 4 SSW 1018,5 56 0 0,0
09.07.2020 01:00:00 15,5 12,3 15,4 20,6 22,7 18,7 0 0 5 3 N 1018,7 65 0 0,0
09.07.2020 00:00:00 15,4 12,4 15,5 21,0 22,9 18,7 4 2 9 5 N 1018,9 62 0 0,0
08.07.2020 23:00:00 15,5 12,2 15,6 21,6 23,2 18,7 5 3 15 8 NNE 1018,7 62 0 0,0
08.07.2020 22:00:00 15,9 12,0 16,0 22,3 23,4 18,7 7 4 21 11 N 1018,4 70 0 0,0
08.07.2020 21:00:00 16,5 11,5 16,7 23,2 23,6 18,7 10 5 24 13 N 1017,8 75 0 0,0
08.07.2020 20:00:00 17,8 11,7 17,9 24,3 23,6 18,7 10 5 21 11 NNE 1017,2 60 0 0,0
08.07.2020 19:00:00 18,9 10,5 19,4 25,4 23,6 18,7 10 5 20 11 N 1016,3 65 0 0,0
08.07.2020 18:00:00 19,9 10,6 21,0 26,8 23,4 18,7 11 6 29 16 NNW 1016,3 71 0 0,0
08.07.2020 17:00:00 21,2 10,7 22,7 28,0 23,1 18,7 14 7 32 18 NNW 1015,9 65 0 0,0
08.07.2020 16:00:00 22,8 10,9 25,6 29,1 22,6 18,7 12 6 32 18 WNW 1015,1 75 0 0,0
08.07.2020 15:00:00 23,0 9,9 26,3 30,0 21,9 18,7 9 5 34 18 NW 1014,8 75 7 0,0
08.07.2020 14:00:00 23,5 8,9 28,9 30,2 21,2 18,7 14 7 26 14 W 1015,1 58 15 0,0
08.07.2020 13:00:00 24,4 9,1 31,9 29,8 20,5 18,7 17 9 39 21 W 1015,2 70 58 0,0
08.07.2020 12:00:00 22,8 8,1 30,7 26,8 20,0 18,7 16 8 31 17 WSW 1015,5 65 60 0,0
08.07.2020 11:00:00 22,3 9,1 29,4 23,3 19,7 18,7 13 7 25 14 WSW 1015,7 69 60 0,0
08.07.2020 10:00:00 18,9 10,4 22,8 19,9 19,7 18,7 11 6 18 10 SSE 1016,6 58 38 0,0
08.07.2020 09:00:00 15,3 9,4 17,3 17,8 19,8 18,7 9 5 17 9 SSE 1017,3 49 10 0,0
08.07.2020 08:00:00 13,5 9,5 14,1 16,7 20,0 18,7 11 6 23 12 SSE 1017,6 47 26 0,0
08.07.2020 07:00:00 12,6 9,3 12,4 16,3 20,3 18,7 10 5 19 10 SSE 1017,6 67 8 0,0
08.07.2020 06:00:00 12,4 9,4 12,1 16,3 20,5 18,7 6 3 14 8 SSE 1017,9 57 0 0,0
08.07.2020 05:00:00 12,0 9,2 11,0 16,5 20,8 18,7 3 2 10 5 SSE 1017,8 63 0 0,0
08.07.2020 04:00:00 11,3 9,0 9,3 16,9 21,2 18,7 3 2 6 3 S 1018,2 70 0 0,0
08.07.2020 03:00:00 11,8 8,9 10,7 17,3 21,5 18,7 0 0 5 3 N 1018,6 75 0 0,0
08.07.2020 02:00:00 11,6 8,4 10,9 17,6 21,9 18,7 3 2 5 3 N 1018,7 67 0 0,0
08.07.2020 01:00:00 11,5 8,9 10,2 18,0 22,2 18,7 4 2 7 4 NNE 1018,9 75 0 0,0
08.07.2020 00:00:00 12,1 8,1 9,0 18,9 22,6 18,7 4 2 7 4 N 1019,1 75 0 0,0
07.07.2020 23:00:00 13,0 8,0 10,3 20,1 22,9 18,7 5 3 9 5 NNE 1018,9 75 0 0,0
07.07.2020 22:00:00 15,1 7,8 11,7 21,4 23,0 18,7 0 0 5 3 N 1018,3 75 0 0,0
07.07.2020 21:00:00 17,6 6,2 13,9 23,0 23,1 18,7 4 2 12 7 NNW 1017,7 75 9 0,0
07.07.2020 20:00:00 19,6 5,6 17,2 24,7 22,9 18,7 7 4 13 7 NW 1017,3 75 56 0,0
07.07.2020 19:00:00 21,6 7,0 24,5 26,1 22,6 18,7 5 3 16 9 W 1017,4 75 38 0,0
07.07.2020 18:00:00 20,2 4,9 22,3 27,4 22,1 18,7 11 6 22 12 W 1018,0 75 42 0,0
07.07.2020 17:00:00 23,2 5,7 28,7 27,6 21,7 18,7 8 4 21 11 W 1018,0 65 44 0,0
07.07.2020 16:00:00 22,3 6,9 26,4 26,7 21,1 18,7 10 5 24 13 W 1018,6 75 30 0,0
07.07.2020 15:00:00 19,9 6,4 22,9 26,4 20,6 18,7 7 4 20 11 WNW 1019,4 68 17 0,0
07.07.2020 14:00:00 22,5 7,2 29,9 25,6 20,2 18,7 7 4 23 12 W 1019,2 58 32 0,0
07.07.2020 13:00:00 19,8 8,6 24,2 23,8 19,8 18,7 8 4 24 13 W 1020,0 75 25 0,0
07.07.2020 12:00:00 17,5 6,8 19,4 22,0 19,4 18,7 6 4 16 9 WSW 1020,7 73 11 0,0
07.07.2020 11:00:00 17,1 6,0 20,3 21,4 19,2 18,7 5 3 22 12 W 1020,9 75 32 0,0
07.07.2020 10:00:00 16,8 8,0 20,6 19,4 19,2 18,7 7 4 16 8 WSW 1021,2 75 58 0,0
07.07.2020 09:00:00 15,8 7,8 17,9 15,7 19,4 18,7 4 2 9 5 NNE 1021,6 64 60 0,0
07.07.2020 08:00:00 12,0 7,6 8,9 13,7 19,8 18,7 2 1 4 2 S 1022,5 65 60 0,0
07.07.2020 07:00:00 8,9 7,1 7,2 13,7 20,2 18,7 3 1 5 3 ENE 1023,1 60 30 0,0
07.07.2020 06:00:00 7,9 6,3 6,1 13,9 20,6 18,7 0 0 6 4 N 1022,9 63 0 0,0

tt = temperature
td = dewpoint
tt 5cm = temperature 5cm
tt -5cm = temperature -5cm
tt -20cm = temperature -20cm
tt -100cm = temperature -100cm
ff = wind speed
fx = gusts
dd = wind direction
ppp = reduced air pressure
vv = visibility
sd = sunshine duration
rr = precipitation

Next stations